{"data":{"norad_id":63660,"intl_designator":"2025-083AC","name":"STARLINK-33810","alt_names":[],"object_type":"PAYLOAD","status":"ACTIVE","operator":null,"country":"US","launch_date":"2025-04-25","launch_site_code":"AFETR","launch_vehicle":null,"mission":null,"orbit_class":"UNKNOWN","rcs_meters":null,"size_class":null,"mass_kg":null,"dimensions":null,"purposes":["comms"],"wikipedia_slug":null,"has_3d_model":false,"image_url":null,"decayed_at":null,"tle_current":{"epoch":"2026-05-24T21:22:18.920928Z","epoch_age_seconds":88520,"freshness":"FRESH","line1":"1 63660U 25083AC  26144.89049677  .00029710  00000+0  10840-2 0  9999","line2":"2 63660  43.0003 294.6167 0001861 267.9850  92.0788 15.27605847 61759","mean_motion":15.27605847,"eccentricity":0.0001861,"inclination_deg":43.0003,"raan_deg":294.6167,"arg_perigee_deg":267.985,"mean_anomaly_deg":92.0788,"bstar":0.001084,"rev_number":6175,"period_min":94.265153725875,"perigee_km":481.69484958509,"apogee_km":484.24855424394,"semimajor_km":6861.1087019145,"source":"CELESTRAK","updated_at":"2026-05-25T13:38:20.088919Z"}}}